| time (UTC) | temp F | wind direction | speed MPH | gust MPH | rain 1hr in | rain 24hr in | rain mn in | humidity % | barometer mb |
| 20260831075032 | 85 | 267 | 8.0 | 12.0 | 0.00 | 0.00 | 0.00 | 45 | 1014.8 |
| 20260831073514 | 84 | 280 | 7.0 | 15.0 | 0.00 | 0.00 | 0.00 | 45 | 1014.9 |
| 20260831071034 | 82 | 210 | 4.0 | 10.0 | 0.00 | 0.00 | 0.00 | 48 | 1014.9 |
| 20260831065031 | 82 | 318 | 6.0 | 10.0 | 0.00 | 0.00 | 0.00 | 47 | 1014.9 |
| 20260831064516 | 82 | 295 | 3.0 | 9.0 | 0.00 | 0.00 | 0.00 | 47 | 1014.8 |
| 20260831061514 | 78 | 276 | 2.0 | 6.0 | 0.00 | 0.00 | 0.00 | 60 | 1014.3 |
| 20260831061037 | 78 | 295 | 2.0 | 3.0 | 0.00 | 0.00 | 0.00 | 62 | 1014.2 |
| 20260831060514 | 78 | 317 | 2.0 | 3.0 | 0.00 | 0.00 | 0.00 | 61 | 1014.2 |
| 20260831055032 | 78 | 276 | 0.0 | 1.0 | 0.00 | 0.00 | 0.00 | 60 | 1014.0 |
| 20260831053032 | 77 | 272 | 1.0 | 3.0 | 0.00 | 0.00 | 0.00 | 61 | 1013.9 |
| 20260831052516 | 77 | 274 | 0.0 | 2.0 | 0.00 | 0.00 | 0.00 | 62 | 1013.8 |
| 20260831051515 | 76 | 241 | 1.0 | 2.0 | 0.00 | 0.00 | 0.00 | 63 | 1013.6 |
| 20260831051032 | 76 | 271 | 2.0 | 3.0 | 0.00 | 0.00 | 0.00 | 63 | 1013.7 |
| 20260831050016 | 77 | 256 | 2.0 | 3.0 | 0.00 | 0.00 | 0.00 | 64 | 1013.6 |
| 20260831045032 | 77 | 291 | 0.0 | 2.0 | 0.00 | 0.00 | 0.00 | 65 | 1013.5 |
| 20260831043515 | 77 | 291 | 1.0 | 2.0 | 0.00 | 0.00 | 0.00 | 65 | 1013.4 |
| 20260831042034 | 77 | 187 | 1.0 | 2.0 | 0.00 | 0.00 | 0.00 | 65 | 1013.2 |
| 20260831041033 | 77 | 137 | 2.0 | 6.0 | 0.00 | 0.00 | 0.00 | 65 | 1013.2 |
| 20260831040013 | 77 | 152 | 3.0 | 6.0 | 0.00 | 0.00 | 0.00 | 65 | 1013.2 |
| 20260831035023 | 78 | 149 | 3.0 | 6.0 | 0.00 | 0.00 | 0.00 | 64 | 1013.1 |
| 20260831033513 | 79 | 136 | 2.0 | 7.0 | 0.00 | 0.00 | 0.00 | 58 | 1013.2 |
| 20260831033023 | 80 | 144 | 3.0 | 9.0 | 0.00 | 0.00 | 0.00 | 53 | 1013.2 |
| 20260831032022 | 80 | 136 | 1.0 | 3.0 | 0.00 | 0.00 | 0.00 | 47 | 1013.2 |
| 20260831031513 | 80 | 150 | 2.0 | 3.0 | 0.00 | 0.00 | 0.00 | 47 | 1013.2 |
| 20260831031022 | 80 | 131 | 2.0 | 3.0 | 0.00 | 0.00 | 0.00 | 47 | 1013.2 |
| 20260831022514 | 81 | 169 | 3.0 | 7.0 | 0.00 | 0.00 | 0.00 | 45 | 1013.3 |
| 20260831022022 | 81 | 234 | 1.0 | 3.0 | 0.00 | 0.00 | 0.00 | 42 | 1013.3 |
| 20260831020513 | 80 | 299 | 7.0 | 12.0 | 0.00 | 0.00 | 0.00 | 46 | 1013.4 |
| 20260831020013 | 80 | 332 | 6.0 | 12.0 | 0.00 | 0.00 | 0.00 | 47 | 1013.4 |
| 20260831015024 | 79 | 332 | 6.0 | 10.0 | 0.00 | 0.00 | 0.00 | 54 | 1013.5 |
| 20260831014024 | 79 | 267 | 3.0 | 7.0 | 0.00 | 0.00 | 0.00 | 59 | 1013.6 |
| 20260831013513 | 78 | 285 | 5.0 | 10.0 | 0.00 | 0.00 | 0.00 | 59 | 1013.7 |
| 20260831013023 | 79 | 276 | 3.0 | 8.0 | 0.00 | 0.00 | 0.00 | 62 | 1013.8 |
| 20260831012514 | 79 | 289 | 5.0 | 8.0 | 0.00 | 0.00 | 0.00 | 62 | 1013.9 |
| 20260831010513 | 79 | 314 | 5.0 | 10.0 | 0.00 | 0.00 | 0.00 | 65 | 1014.2 |
| 20260831003022 | 78 | 337 | 6.0 | 12.0 | 0.00 | 0.00 | 0.00 | 64 | 1014.3 |
| 20260831002023 | 78 | 295 | 6.0 | 10.0 | 0.00 | 0.00 | 0.00 | 62 | 1014.2 |
| 20260831001513 | 78 | 271 | 7.0 | 13.0 | 0.00 | 0.00 | 0.00 | 62 | 1014.3 |
| 20260831000513 | 79 | 287 | 9.0 | 14.0 | 0.00 | 0.00 | 0.00 | 62 | 1014.4 |
| 20260831000013 | 78 | 318 | 9.0 | 15.0 | 0.00 | 0.00 | 0.00 | 61 | 1014.3 |
| 20260830235023 | 79 | 284 | 9.0 | 15.0 | 0.00 | 0.00 | 0.00 | 60 | 1014.2 |
| 20260830234513 | 79 | 283 | 9.0 | 13.0 | 0.00 | 0.00 | 0.00 | 60 | 1014.2 |
| 20260830232515 | 79 | 285 | 10.0 | 20.0 | 0.00 | 0.00 | 0.00 | 60 | 1014.6 |
| 20260830231513 | 79 | 309 | 10.0 | 16.0 | 0.00 | 0.00 | 0.00 | 60 | 1014.8 |
| 20260830231022 | 79 | 245 | 11.0 | 16.0 | 0.00 | 0.00 | 0.00 | 60 | 1014.8 |
| 20260830230512 | 79 | 297 | 10.0 | 18.0 | 0.00 | 0.00 | 0.00 | 59 | 1014.8 |
| 20260830230013 | 79 | 278 | 9.0 | 15.0 | 0.00 | 0.00 | 0.00 | 59 | 1014.8 |
| 20260830221514 | 80 | 287 | 5.0 | 10.0 | 0.00 | 0.00 | 0.00 | 56 | 1014.5 |
| 20260830221024 | 80 | 310 | 5.0 | 10.0 | 0.00 | 0.00 | 0.00 | 56 | 1014.4 |
| 20260830220512 | 80 | 275 | 5.0 | 8.0 | 0.00 | 0.00 | 0.00 | 55 | 1014.5 |
| 20260830214513 | 81 | 278 | 5.0 | 9.0 | 0.00 | 0.00 | 0.00 | 54 | 1014.4 |
| 20260830213513 | 81 | 283 | 5.0 | 12.0 | 0.00 | 0.00 | 0.00 | 53 | 1014.4 |
| 20260830211513 | 81 | 267 | 3.0 | 7.0 | 0.00 | 0.00 | 0.00 | 53 | 1014.4 |
| 20260830210513 | 81 | 279 | 5.0 | 9.0 | 0.00 | 0.00 | 0.00 | 52 | 1014.3 |
| 20260830210012 | 82 | 267 | 4.0 | 10.0 | 0.00 | 0.00 | 0.00 | 52 | 1014.3 |
| 20260830205512 | 82 | 242 | 6.0 | 10.0 | 0.00 | 0.00 | 0.00 | 52 | 1014.3 |
| 20260830204512 | 82 | 283 | 6.0 | 9.0 | 0.00 | 0.00 | 0.00 | 52 | 1014.2 |
| 20260830203023 | 82 | 270 | 3.0 | 8.0 | 0.00 | 0.00 | 0.00 | 51 | 1014.2 |
| 20260830202513 | 82 | 273 | 2.0 | 8.0 | 0.00 | 0.00 | 0.00 | 51 | 1014.2 |
| 20260830201513 | 83 | 308 | 4.0 | 9.0 | 0.00 | 0.00 | 0.00 | 51 | 1014.2 |
| 20260830195513 | 83 | 285 | 4.0 | 8.0 | 0.00 | 0.00 | 0.00 | 51 | 1014.2 |
| 20260830195022 | 83 | 285 | 5.0 | 9.0 | 0.00 | 0.00 | 0.00 | 50 | 1014.2 |
| 20260830194023 | 84 | 287 | 4.0 | 8.0 | 0.00 | 0.00 | 0.00 | 50 | 1014.1 |
| 20260830193022 | 84 | 350 | 4.0 | 9.0 | 0.00 | 0.00 | 0.00 | 50 | 1014.1 |
| 20260830192512 | 84 | 295 | 4.0 | 9.0 | 0.00 | 0.00 | 0.00 | 50 | 1014.0 |
| 20260830192022 | 84 | 249 | 6.0 | 10.0 | 0.00 | 0.00 | 0.00 | 50 | 1014.0 |
| 20260830191022 | 84 | 268 | 4.0 | 9.0 | 0.00 | 0.00 | 0.00 | 50 | 1014.0 |
| 20260830190512 | 85 | 285 | 6.0 | 10.0 | 0.00 | 0.00 | 0.00 | 50 | 1014.0 |
| 20260830190014 | 85 | 321 | 6.0 | 12.0 | 0.00 | 0.00 | 0.00 | 50 | 1013.9 |
| 20260830185512 | 85 | 269 | 5.0 | 12.0 | 0.00 | 0.00 | 0.00 | 49 | 1013.8 |
| 20260830185022 | 85 | 268 | 5.0 | 9.0 | 0.00 | 0.00 | 0.00 | 49 | 1013.8 |
| 20260830184512 | 85 | 289 | 4.0 | 10.0 | 0.00 | 0.00 | 0.00 | 49 | 1013.6 |
| 20260830184022 | 85 | 260 | 6.0 | 10.0 | 0.00 | 0.00 | 0.00 | 49 | 1013.6 |
| 20260830183513 | 85 | 272 | 4.0 | 10.0 | 0.00 | 0.00 | 0.00 | 49 | 1013.6 |
| 20260830183022 | 85 | 298 | 5.0 | 12.0 | 0.00 | 0.00 | 0.00 | 49 | 1013.5 |
| 20260830182022 | 85 | 274 | 6.0 | 12.0 | 0.00 | 0.00 | 0.00 | 49 | 1013.4 |
| 20260830181024 | 86 | 293 | 7.0 | 12.0 | 0.00 | 0.00 | 0.00 | 48 | 1013.4 |
| 20260830175514 | 86 | 291 | 7.0 | 14.0 | 0.00 | 0.00 | 0.00 | 47 | 1013.2 |
| 20260830174032 | 87 | 241 | 7.0 | 14.0 | 0.00 | 0.00 | 0.00 | 45 | 1013.2 |
| 20260830172517 | 88 | 249 | 8.0 | 12.0 | 0.00 | 0.00 | 0.00 | 44 | 1013.1 |
| 20260830172032 | 88 | 276 | 6.0 | 12.0 | 0.00 | 0.00 | 0.00 | 43 | 1013.1 |
| 20260830171514 | 88 | 354 | 8.0 | 15.0 | 0.00 | 0.00 | 0.00 | 43 | 1013.1 |
| 20260830171035 | 88 | 285 | 7.0 | 13.0 | 0.00 | 0.00 | 0.00 | 43 | 1013.0 |
| 20260830170512 | 88 | 265 | 9.0 | 15.0 | 0.00 | 0.00 | 0.00 | 43 | 1013.1 |
| 20260830164516 | 89 | 253 | 9.0 | 18.0 | 0.00 | 0.00 | 0.00 | 42 | 1013.1 |
| 20260830164032 | 89 | 272 | 10.0 | 20.0 | 0.00 | 0.00 | 0.00 | 43 | 1013.1 |
| 20260830163033 | 90 | 259 | 9.0 | 16.0 | 0.00 | 0.00 | 0.00 | 42 | 1013.1 |
| 20260830161036 | 91 | 14 | 9.0 | 17.0 | 0.00 | 0.00 | 0.00 | 43 | 1013.1 |
| 20260830160015 | 91 | 263 | 10.0 | 17.0 | 0.00 | 0.00 | 0.00 | 43 | 1013.1 |
| 20260830154031 | 92 | 249 | 9.0 | 20.0 | 0.00 | 0.00 | 0.00 | 44 | 1012.9 |
| 20260830153036 | 93 | 252 | 9.0 | 18.0 | 0.00 | 0.00 | 0.00 | 42 | 1012.9 |
| 20260830152035 | 93 | 224 | 10.0 | 25.0 | 0.00 | 0.00 | 0.00 | 42 | 1013.0 |
| 20260830151035 | 92 | 271 | 14.0 | 23.0 | 0.00 | 0.00 | 0.00 | 43 | 1013.0 |
| 20260830145517 | 93 | 239 | 12.0 | 20.0 | 0.00 | 0.00 | 0.00 | 43 | 1013.0 |
| 20260830144515 | 94 | 267 | 10.0 | 20.0 | 0.00 | 0.00 | 0.00 | 42 | 1013.0 |
| 20260830143516 | 94 | 236 | 10.0 | 18.0 | 0.00 | 0.00 | 0.00 | 42 | 1013.1 |
| 20260830143036 | 94 | 262 | 10.0 | 22.0 | 0.00 | 0.00 | 0.00 | 42 | 1013.1 |
| 20260830142514 | 94 | 261 | 12.0 | 20.0 | 0.00 | 0.00 | 0.00 | 42 | 1013.2 |
| 20260830142035 | 94 | 264 | 10.0 | 21.0 | 0.00 | 0.00 | 0.00 | 43 | 1013.1 |
| 20260830141516 | 94 | 256 | 10.0 | 18.0 | 0.00 | 0.00 | 0.00 | 42 | 1013.3 |
| 20260830133514 | 97 | 268 | 12.0 | 20.0 | 0.00 | 0.00 | 0.00 | 35 | 1013.5 |
| 20260830130519 | 99 | 245 | 13.0 | 22.0 | 0.00 | 0.00 | 0.00 | 27 | 1013.7 |
| 20260830125514 | 99 | 305 | 8.0 | 15.0 | 0.00 | 0.00 | 0.00 | 28 | 1013.8 |
| 20260830125030 | 100 | 276 | 12.0 | 18.0 | 0.00 | 0.00 | 0.00 | 26 | 1013.9 |
| 20260830123031 | 99 | 253 | 8.0 | 20.0 | 0.00 | 0.00 | 0.00 | 26 | 1014.2 |
| 20260830122513 | 99 | 239 | 13.0 | 21.0 | 0.00 | 0.00 | 0.00 | 26 | 1014.2 |
| 20260830121030 | 99 | 253 | 11.0 | 17.0 | 0.00 | 0.00 | 0.00 | 25 | 1014.3 |
| 20260830120012 | 99 | 297 | 9.0 | 16.0 | 0.00 | 0.00 | 0.00 | 24 | 1014.4 |
| 20260830115515 | 99 | 289 | 9.0 | 17.0 | 0.00 | 0.00 | 0.00 | 24 | 1014.4 |
| 20260830115031 | 98 | 232 | 8.0 | 18.0 | 0.00 | 0.00 | 0.00 | 26 | 1014.4 |
| 20260830114514 | 99 | 262 | 13.0 | 20.0 | 0.00 | 0.00 | 0.00 | 24 | 1014.5 |
| 20260830114032 | 99 | 341 | 10.0 | 15.0 | 0.00 | 0.00 | 0.00 | 24 | 1014.5 |
| 20260830113515 | 99 | 230 | 12.0 | 16.0 | 0.00 | 0.00 | 0.00 | 25 | 1014.5 |
| 20260830113031 | 99 | 240 | 5.0 | 17.0 | 0.00 | 0.00 | 0.00 | 24 | 1014.5 |
| 20260830112512 | 98 | 246 | 7.0 | 16.0 | 0.00 | 0.00 | 0.00 | 26 | 1014.7 |
| 20260830112031 | 98 | 217 | 8.0 | 16.0 | 0.00 | 0.00 | 0.00 | 27 | 1014.5 |
| 20260830110514 | 98 | 187 | 11.0 | 17.0 | 0.00 | 0.00 | 0.00 | 24 | 1014.7 |
| 20260830110016 | 98 | 173 | 9.0 | 15.0 | 0.00 | 0.00 | 0.00 | 24 | 1014.7 |
| 20260830105513 | 97 | 267 | 7.0 | 14.0 | 0.00 | 0.00 | 0.00 | 26 | 1014.7 |
| 20260830104512 | 97 | 199 | 8.0 | 15.0 | 0.00 | 0.00 | 0.00 | 26 | 1014.8 |
| 20260830101514 | 96 | 339 | 7.0 | 16.0 | 0.00 | 0.00 | 0.00 | 27 | 1014.9 |
| 20260830101030 | 96 | 261 | 9.0 | 16.0 | 0.00 | 0.00 | 0.00 | 27 | 1014.9 |
| 20260830100515 | 96 | 248 | 10.0 | 17.0 | 0.00 | 0.00 | 0.00 | 27 | 1015.0 |
| 20260830100013 | 96 | 235 | 9.0 | 16.0 | 0.00 | 0.00 | 0.00 | 27 | 1015.1 |
| 20260830095513 | 96 | 271 | 8.0 | 14.0 | 0.00 | 0.00 | 0.00 | 27 | 1015.1 |
| 20260830095030 | 96 | 249 | 8.0 | 15.0 | 0.00 | 0.00 | 0.00 | 27 | 1015.1 |
| 20260830094512 | 95 | 260 | 9.0 | 16.0 | 0.00 | 0.00 | 0.00 | 28 | 1015.2 |
| 20260830094031 | 95 | 258 | 10.0 | 17.0 | 0.00 | 0.00 | 0.00 | 28 | 1015.2 |
| 20260830092512 | 94 | 238 | 8.0 | 14.0 | 0.00 | 0.00 | 0.00 | 29 | 1015.3 |
| 20260830091513 | 95 | 275 | 7.0 | 12.0 | 0.00 | 0.00 | 0.00 | 29 | 1015.4 |
| 20260830085030 | 94 | 258 | 9.0 | 15.0 | 0.00 | 0.00 | 0.00 | 28 | 1015.3 |
| 20260830084512 | 94 | 278 | 7.0 | 14.0 | 0.00 | 0.00 | 0.00 | 28 | 1015.3 |
| 20260830084030 | 93 | 307 | 6.0 | 12.0 | 0.00 | 0.00 | 0.00 | 28 | 1015.3 |
| 20260830082030 | 93 | 245 | 6.0 | 14.0 | 0.00 | 0.00 | 0.00 | 28 | 1015.3 |
| 20260830080514 | 92 | 271 | 5.0 | 10.0 | 0.00 | 0.00 | 0.00 | 29 | 1015.2 |